Regional Weather Roundup
Issued by NWS Midland/Odessa, TX

Home | Current Version | Previous Version | Text Only | Print | Product List | Glossary On
Versions: 1 2 3 4 5 6 7 8 9 10 11 12 13 14 15 16 17 18 19 20 21 22 23 24 25 26 27 28 29 30 31 32 33 34 35 36 37 38 39 40 41 42 43 44 45 46 47 48 49 50
000
ASUS44 KMAF 292110
RWRMAF
MIDLAND AREA WEATHER ROUNDUP
NATIONAL WEATHER SERVICE MIDLAND TX
400 PM CDT FRI JUL 29 2016

...IN SOUTHWEST TEXAS AND SOUTHEAST NEW MEXICO...

CITY           SKY/WX    TMP DP  RH WIND       PRES   REMARKS
ALPINE         CLOUDY    87  56  35 E16G22    30.15F THUNDER
ANDREWS        FAIR      92  58  32 SE13G20   30.07F
ARTESIA        SUNNY     95  54  24 SE12      30.03F
BIG SPRING     MOSUNNY   94  61  33 S8G20     30.05F
CARLSBAD       MOSUNNY   94  56  27 E14G24    30.02F
DRYDEN           N/A     89  66  46 S14       30.00F
FORT STOCKTON  MOSUNNY   93  60  33 SE16G26   30.01F
GUAD PASS      SUNNY     86  52  30 E23G33    30.18F
HOBBS          MOSUNNY   91  54  27 SE15      30.09F
MARFA          LGT RAIN  78  58  49 S13       30.14F
MIDLAND AIRPK  MOSUNNY   93  58  31 SE9       30.04F HAZE
MIDLAND INTL   MOSUNNY   95  59  30 SE13      30.04F
ODESSA         MOSUNNY   93  59  31 SE15      30.05F
PECOS          SUNNY     96  59  29 E15G23    29.97F
PRESIDIO       LGT RAIN  77  68  75 E3        30.01F
SEMINOLE       MOSUNNY   92  55  29 SE12G18   30.08F
SNYDER           N/A     93  63  36 SE10      30.02F
WINK           SUNNY     94  59  31 SE12G22   30.00F
$$
...OTHER STATIONS IN TEXAS...

CITY           SKY/WX    TMP DP  RH WIND       PRES   REMARKS
ABILENE        RAIN      80  73  79 E9        30.03S
AMARILLO       SUNNY     86  63  45 SE14G23   30.09F
AUSTIN         MOSUNNY   94  69  44 S7        29.97F
BROWNSVILLE    MOSUNNY   94  74  52 SE16G22   29.94F HX 104
CORPUS CHRISTI MOSUNNY   95  72  47 SE13G20   29.94F HX 103
DALLAS FTW     PTSUNNY   94  69  44 S10       29.94F
DEL RIO        CLOUDY    88  72  58 SE5       29.96F
EL PASO        MOSUNNY   97  49  19 E17G28    30.01F
HOUSTON INT    PTSUNNY   92  73  53 E10       29.98F HX 100
LUBBOCK        PTSUNNY   93  58  30 SE14G23   30.05F
SAN ANGELO     SUNNY     96  61  31 S9        29.99F
SAN ANTONIO    MOSUNNY   91  69  48 VRB3      29.98F
WACO           MOSUNNY   87  72  60 S10       29.97F
WICHITA FALLS  NOT AVBL
$$
...OTHER LOCATIONS IN NEW MEXICO...

CITY           SKY/WX    TMP DP  RH WIND       PRES   REMARKS
ALAMAGORDO     SUNNY     93  50  22 NW8       30.04F
ALBUQUERQUE    CLOUDY    90  46  21 SW20G29   30.12F
CANNON AFB     SUNNY     92  53  26 S15G25    30.08F
CLOVIS         MOSUNNY   91  57  31 S16G26    30.08F
HOLLOMAN AFB   MOSUNNY   93  52  24 VRB5      30.00F
ROSWELL        SUNNY     97  51  21 SE17      30.03F
RUIDOSO          N/A     81  36  19 SE8       30.28S
SANTA FE       LGT RAIN  83  30  14 MISG      30.16S
TRUTH OR CONSE CLOUDY    89  42  19 N10       30.10F
TUCUMCARI      MOSUNNY   98  47  17 SW16G29   30.01F
$$




USA.gov is the U.S. government's official web portal to all federal, state and local government web resources and services.